STARLINK-2080 (47365 NORAD) Tracking and Keplerian Element Data

This shows tracking and keplerian element data for the satellite.

Feedback or suggestion? Click here.




ElementValue
Catalog47365
NameSTARLINK-2080
Epoch Orbit1373
Epoch Day101.91668981
Epoch Year2021
RAAN171.92
Inclination53.0536
Eccentricity0.0004107
Argument of Perigee2.7077
Mean Anonmoly166.5821
Mean Motion15.62835999
Decay Rate-0.0009233
L11 47365U 21005S 21101.91668981 -.00092330 00000-0 -10102-2 0 9991
L22 47365 53.0536 171.9200 0004107 2.7077 166.5821 15.62835999 13734

Live tracking and technical data element details for STARLINK-2080 (NORAD 47365). STARLINK-2080 can be tracked NOW for your location showing map with azimuth and elevation plus other details from your city location.

Track the satellite on the map from your city or location and see movement details for azimuth, elevation, latitude, longitude, range, height, and movement on the map or in text.







IsCatalogInMostPopularTable: catalog: 47365, numindb: 14
Update: records affected: 1



GetName: 47365 STARLINK-2080

Hit Count: updated at: Tue, 13 Apr 2021 04:50:11 GMT